COSMOS 2477 (745)

Last updated on Tue Jan 14 2025 00:03:10 GMT+0000 (Coordinated Universal Time)

1 37868U 11064B 25013.06220729 -.00000024 00000+0 00000+0 0 9998 2 37868 64.9900 90.5456 0021424 237.3963 324.6358 2.13102857102673
UTC large
Height (km)
Speed (km/s)
/
Latitude / Longitude
Inclination (degrees)
Orbital Period (minutes)
Azimuth
Elevation
Range (km)
Doppler Factor

Next 0 passes for location: London (51.5072 / 0.1276)

Sorry there are no passes over London.